FENGYUN 1C DEB

Satellite information

Favourite Embed

Satellite Type and Status

DEBRISIN ORBIT

Key statistics

Satellite FENGYUN 1C DEB at a glance.

Uptime

9714

Days in orbit

Revolutions

≈ 14.4

Per day

Orbit

SSO

Sun Synchronous Orbit

Inclination

99.6

Latest

Satellite identification and parameters

Extended collection of information and parameters for FENGYUN 1C DEB.

Object identification

Identified? True

Debris? True

Object name: FENGYUN 1C DEB

International designator: 1999-025GE

Object number (NORAD): 29884

Object ID (CCSDS): 29884

Country: PEOPLES REPUBLIC OF CHINA (PRC)

Current information (Y/N): Y

RCS size: SMALL

Orbital parameters

Period: 99.98 minutes

Inclination: 99.6036 deg

SMA: 7135.668 km

Apoapsis: 789.312 km

Periapsis: 725.754 km

RAAN: 19.437 deg

Eccentricy: 0.00445354

Argument of periapsis: 138.871 deg

Mean anomaly: 247.1513 deg

Mean motion: 14.40292854 rev/day

Mean motion (dot): 0.00003189 rev/day2

B* drag term: 0.0010110232 1/REarth

Two-line elements (TLE)

Creation date: Dec. 12, 2025, 10:14 a.m.

Reference frame: TEME

Reference center: EARTH

Epoch: Dec. 12, 2025, 2:01 a.m. UTC

TLE line 0: 0 FENGYUN 1C DEB

TLE line 1: 1 29884U 99025GE 25346.08436009 .00003189 00000-0 10110-2 0 9992

TLE line 2: 2 29884 99.6036 19.4370 0044535 138.8710 247.1513 14.40292854985407

Live tracking on map

Real-time ground track for satellite FENGYUN 1C DEB.

In-orbit conjunctions

A list of the most updated potential collisions computed for object FENGYUN 1C DEB.

Target Orbit TCA Probability of collision Miss distance Type
MINOTAUR R/B SSO 2025-02-27 12:19:43 0.0001351471 280.0 (m) ROCKET BODY

Associated space launch

Chinese polar orbiting meteorological satellite

FENGYUN 1C DEB was lifted into orbit during the mission ‘Long March 4B | Feng Yun 1C’, on board a Long March 4B space rocket.

The launch took place on May 10, 1999, 1:33 a.m. from Launch Complex 7.

For more information about the launch, click the button.

Launch to space Long March 4B | Feng Yun 1C
Long March 4B | Feng Yun 1C

Agency: N/A

Status: Launch Successful

Launch date: May 10, 1999, 1:33 a.m. UTC

Rocket: Long March 4B

Launch pad: Launch Complex 7

Location: Taiyuan Satellite Launch Center, People's Republic of China

...

Latest news about this satellite

There are no fresh news available about this satellite. Check back as we update our databases every day.


Newsletter sign-up

Weekly statistics, charts and insights to help you stay on top of the space industry.